Weather in Tel'viska

Russia / Nenets Autonomous Okrug     67°38′00″N   52°53′11″E
temp.,
°C
wind,
m/s
gust,
m/s
humid.,
%
clouds,
%
prec.,
mm/h
press.,
hPa
HPBL,
m
19 september, sun
sun1900:00+3n81277100 0.0 1024762
03:00+3n81376100 0.0 1024755
06:00+3n71272100 0.0 1025875
09:00+4n71073100 0.0 10251336
12:00+4n71072100 0.0 10261329
15:00+4n6971100 0.0 10271249
18:00+4n5971100 0.0 1028563
21:00+4n5971100 0.0 1029441
20 september, mon
mon2000:00+4nnw4872100 0.0 1030273
03:00+2nnw358468 0.0 103170
06:00+4nnw4877100 0.0 1031303
09:00+5nnw487334 0.0 1032713
12:00+8nw576194 0.0 10321144
15:00+8nw6866100 0.0 1031910
18:00+6wnw61181100 0.0 1030386
21:00+5wnw51186100 0.0 1029367
21 september, tue
tue2100:00+5wnw6118496 0.0 1029411
03:00+5nw6128766 0.0 1029390
06:00+5nw5118773 0.0 1028447
09:00+7nw687444 0.0 1028573
12:00+9nnw676048 0.0 1028786
15:00+9nw68615 0.0 1028772
18:00+5wnw468120 0.0 102999
21:00+3nw35905 0.0 102970
22 september, wed
wed2200:00+3nw45905 0.0 102984
03:00+2wnw45905 0.0 102985
06:00+2wnw35905 0.0 102982
09:00+7wnw46725 0.0 1029335
12:00+9w45540 0.0 1029668
15:00+9w46570 0.0 1029709
18:00+5wsw33741 0.0 102824
21:00+4sw447786 0.0 102854
23 september, thu
thu2300:00+3sw4780100 0.0 1027118
03:00+3sw4983100 0.0 1026164
06:00+3sw51081100 0.0 1025196
09:00+5sw51072100 0.0 1025326
12:00+8sw6963100 0.0 1024501
15:00+9sw5968100 0.0 1024501
18:00+6ssw478325 0.0 102397
21:00+5ssw488876 0.0 1023121